Hourly Data Report for July 21, 2021

CAMPBELL RIVER A
BRITISH COLUMBIA
Current Station Operator: NAVCAN

49°57'07.000" N
125°16'23.000" W
108.80 m
1021270
YBL

Download Data

Hourly Data (July 2021)
Hourly Data Report for July 21, 2021
TIME
LST
Temp Definition
°C
Dew Point Definition
°C
Rel Hum Definition
%
Precip. Amount Definition
mm

Wind Dir Definition
10's deg

Wind Spd Definition
km/h
Visibility Definition
km
Stn Press Definition
kPa
Hmdx Definition


Wind Chill Definition


Weather Definition


00:00 14.9 9.1 68 LegendMM 31 21 LegendMM 100.49     LegendNANA
01:00 14.7 9.1 69 LegendMM 31 19 LegendMM 100.49     LegendNANA
02:00 14.3 9.3 72 LegendMM 31 15 LegendMM 100.50     LegendNANA
03:00 14.0 9.0 72 LegendMM 29 12 LegendMM 100.52     LegendNANA
04:00 12.8 8.0 73 LegendMM 24 7 LegendMM 100.53     LegendNANA
05:00 12.4 7.6 72 LegendMM 29 12 LegendMM 100.55     LegendNANA
06:00 10.9 8.2 83 LegendMM 27 6 LegendMM 100.58     LegendNANA
07:00 15.8 7.8 59 LegendMM 32 9 LegendMM 100.60     LegendNANA
08:00 17.3 6.7 50 LegendMM 35 4 LegendMM 100.62     LegendNANA
09:00 18.3 6.0 44 LegendMM 36 5 LegendMM 100.62     LegendNANA
10:00 19.0 6.4 43 LegendMM 8 13 LegendMM 100.62     LegendNANA
11:00 18.2 7.5 49 LegendMM 8 14 LegendMM 100.65     LegendNANA
12:00 19.2 6.7 44 LegendMM 35 7 LegendMM 100.63     LegendNANA
13:00 18.8 8.2 50 LegendMM 20 9 LegendMM 100.63     LegendNANA
14:00 20.8 7.4 41 LegendMM 16 10 LegendMM 100.62     LegendNANA
15:00 19.2 9.2 52 LegendMM 21 4 LegendMM 100.65     LegendNANA
16:00 17.7 11.0 65 LegendMM 13 12 LegendMM 100.65     LegendNANA
17:00 18.5 10.3 58 LegendMM 12 9 LegendMM 100.63     LegendNANA
18:00 17.7 10.9 64 LegendMM 33 16 LegendMM 100.66     LegendNANA
19:00 16.6 10.4 66 LegendMM 33 10 LegendMM 100.67     LegendNANA
20:00 13.9 10.8 82 LegendMM 28 8 LegendMM 100.69     LegendNANA
21:00 12.0 10.7 91 LegendMM 28 5 LegendMM 100.72     LegendNANA
22:00 10.5 9.9 96 LegendMM 0 1 LegendMM 100.74     LegendNANA
23:00 9.3 9.0 98 LegendMM 28 3 LegendMM 100.76     LegendNANA

Notes on Data Quality.

Legend

  • E = Estimated
  • M = Missing
  • NA = Not Available*
  • [empty] = Indicates an unobserved value
Date modified: